NUVIEW BRAVO (62457 NORAD) Tracking and Keplerian Element Data

This shows tracking and keplerian element data for the satellite.

Feedback or suggestion? Click here.




ElementValue
Catalog62457
NameNUVIEW BRAVO
Epoch Orbit36
Epoch Day31.86950459
Epoch Year2025
RAAN353.7366
Inclination9.9143
Eccentricity0.7579017
Argument of Perigee190.513
Mean Anonmoly132.6252
Mean Motion1.05041328
Decay Rate-1.84E-06
L11 62457U 24252D 25031.86950459 -.00000184 00000+0 00000+0 0 9998
L22 62457 9.9143 353.7366 7579017 190.5130 132.6252 1.05041328 364



Live tracking and technical data element details for NUVIEW BRAVO (NORAD 62457). NUVIEW BRAVO can be tracked NOW for your location showing map with azimuth and elevation plus other details from your city location.







IsCatalogInMostPopularTable: catalog: 62457, numindb: 10
Update: records affected: 1



GetName: 62457 NUVIEW BRAVO

Hit Count: updated at: Sat, 24 May 2025 16:18:17 GMT